When you browse on this site, cookies collect data to enhance your experience and personalize the content and advertising you see.
Visit our Privacy Policy to learn more. By continuing to use the site, you agree to this use of cookies and data.
  • en Belgique
  • Liste des pays
  • À 7 jours
  • Température de l'eau
  • Carte satellitaire
  • Carte météo
  • Widgets météo
  • user-avatar
    Se connecter

    Météo par heure à Asse

    Ce jour, 23 Février, Samedi

    Heure Température Précipitation Vent Pression Humidité
    00:00 +7°C° 0 mm 3 m/s 773 mmHg 91%
    01:00 +7°C° 0 mm 3 m/s 773 mmHg 91%
    02:00 +7°C° 0 mm 3 m/s 773 mmHg 91%
    03:00 +7°C° 0 mm 2 m/s 773 mmHg 90%
    04:00 +6°C° 0 mm 2 m/s 773 mmHg 90%
    05:00 +6°C° 0 mm 2 m/s 773 mmHg 90%
    06:00 +5°C° 0 mm 2 m/s 773 mmHg 90%
    07:00 +6°C° 0 mm 2 m/s 773 mmHg 86%
    08:00 +7°C° 0 mm 3 m/s 773 mmHg 82%
    09:00 +8°C° 0 mm 3 m/s 773 mmHg 78%
    10:00 +9°C° 0 mm 3 m/s 773 mmHg 72%
    11:00 +11°C° 0 mm 3 m/s 773 mmHg 65%
    12:00 +12°C° 0 mm 3 m/s 773 mmHg 59%
    13:00 +13°C° 0 mm 3 m/s 772 mmHg 56%
    14:00 +14°C° 0 mm 2 m/s 772 mmHg 54%
    15:00 +15°C° 0 mm 2 m/s 772 mmHg 51%
    16:00 +13°C° 0 mm 2 m/s 772 mmHg 55%
    17:00 +12°C° 0 mm 2 m/s 772 mmHg 59%
    18:00 +9°C° 0 mm 2 m/s 772 mmHg 64%
    19:00 +9°C° 0 mm 2 m/s 772 mmHg 62%
    20:00 +8°C° 0 mm 2 m/s 772 mmHg 61%
    21:00 +7°C° 0 mm 2 m/s 773 mmHg 60%
    22:00 +7°C° 0 mm 2 m/s 773 mmHg 57%
    23:00 +6°C° 0 mm 2 m/s 773 mmHg 54%

    Demain, 24 Février, Dimanche

    Heure Température Précipitation Vent Pression Humidité
    00:00 +5°C° 0 mm 2 m/s 773 mmHg 52%
    01:00 +5°C° 0 mm 2 m/s 773 mmHg 50%
    02:00 +5°C° 0 mm 2 m/s 773 mmHg 48%
    03:00 +5°C° 0 mm 1 m/s 773 mmHg 46%
    04:00 +5°C° 0 mm 1 m/s 773 mmHg 45%
    05:00 +5°C° 0 mm 1 m/s 773 mmHg 44%
    06:00 +5°C° 0 mm 1 m/s 773 mmHg 42%
    07:00 +6°C° 0 mm 1 m/s 773 mmHg 41%
    08:00 +6°C° 0 mm 2 m/s 773 mmHg 40%
    09:00 +7°C° 0 mm 2 m/s 774 mmHg 38%
    10:00 +9°C° 0 mm 2 m/s 774 mmHg 35%
    11:00 +12°C° 0 mm 1 m/s 774 mmHg 31%
    12:00 +13°C° 0 mm 1 m/s 774 mmHg 27%
    13:00 +14°C° 0 mm 1 m/s 774 mmHg 29%
    14:00 +14°C° 0 mm 1 m/s 773 mmHg 30%
    15:00 +15°C° 0 mm 2 m/s 773 mmHg 32%
    16:00 +13°C° 0 mm 2 m/s 773 mmHg 36%
    17:00 +12°C° 0 mm 2 m/s 773 mmHg 39%
    18:00 +9°C° 0 mm 2 m/s 774 mmHg 43%
    19:00 +9°C° 0 mm 2 m/s 774 mmHg 45%
    20:00 +8°C° 0 mm 2 m/s 774 mmHg 47%
    21:00 +8°C° 0 mm 2 m/s 774 mmHg 49%
    22:00 +8°C° 0 mm 1 m/s 774 mmHg 51%
    23:00 +8°C° 0 mm 1 m/s 774 mmHg 53%

    Après-demain, 25 Février, Lundi

    Heure Température Précipitation Vent Pression Humidité
    00:00 +8°C° 0 mm 1 m/s 774 mmHg 55%
    01:00 +7°C° 0 mm 1 m/s 774 mmHg 56%
    02:00 +7°C° 0 mm 1 m/s 774 mmHg 56%
    03:00 +7°C° 0 mm 1 m/s 774 mmHg 57%
    04:00 +7°C° 0 mm 1 m/s 774 mmHg 56%
    05:00 +7°C° 0 mm 1 m/s 774 mmHg 56%
    06:00 +5°C° 0 mm 0 m/s 774 mmHg 56%
    07:00 +7°C° 0 mm 1 m/s 775 mmHg 54%
    08:00 +8°C° 0 mm 1 m/s 775 mmHg 53%
    09:00 +10°C° 0 mm 1 m/s 775 mmHg 51%
    10:00 +11°C° 0 mm 1 m/s 775 mmHg 47%
    11:00 +13°C° 0 mm 1 m/s 774 mmHg 42%
    12:00 +15°C° 0 mm 1 m/s 774 mmHg 38%
    13:00 +15°C° 0 mm 1 m/s 774 mmHg 39%
    14:00 +16°C° 0 mm 2 m/s 773 mmHg 41%
    15:00 +16°C° 0 mm 2 m/s 773 mmHg 42%
    16:00 +15°C° 0 mm 2 m/s 773 mmHg 47%
    17:00 +13°C° 0 mm 2 m/s 773 mmHg 51%
    18:00 +10°C° 0 mm 2 m/s 773 mmHg 56%
    19:00 +10°C° 0 mm 2 m/s 773 mmHg 58%
    20:00 +9°C° 0 mm 2 m/s 773 mmHg 60%
    21:00 +9°C° 0 mm 2 m/s 773 mmHg 61%
    22:00 +8°C° 0 mm 2 m/s 773 mmHg 64%
    23:00 +8°C° 0 mm 2 m/s 773 mmHg 66%

    26 Février, Mardi

    Heure Température Précipitation Vent Pression Humidité
    00:00 +9°C° 0 mm 1 m/s 773 mmHg 68%
    01:00 +9°C° 0 mm 1 m/s 773 mmHg 70%
    02:00 +8°C° 0 mm 1 m/s 773 mmHg 71%
    03:00 +8°C° 0 mm 1 m/s 772 mmHg 73%
    04:00 +8°C° 0 mm 1 m/s 772 mmHg 73%
    05:00 +7°C° 0 mm 0 m/s 772 mmHg 74%
    06:00 +6°C° 0 mm 0 m/s 772 mmHg 74%
    07:00 +8°C° 0 mm 0 m/s 772 mmHg 69%
    08:00 +10°C° 0 mm 1 m/s 772 mmHg 65%
    09:00 +11°C° 0 mm 1 m/s 772 mmHg 60%
    10:00 +13°C° 0 mm 1 m/s 772 mmHg 56%
    11:00 +15°C° 0 mm 1 m/s 772 mmHg 51%
    12:00 +16°C° 0 mm 1 m/s 772 mmHg 47%
    13:00 +18°C° 0 mm 1 m/s 772 mmHg 46%
    14:00 +18°C° 0 mm 1 m/s 771 mmHg 46%
    15:00 +17°C° 0 mm 2 m/s 771 mmHg 46%
    16:00 +16°C° 0 mm 2 m/s 771 mmHg 51%
    17:00 +14°C° 0 mm 2 m/s 771 mmHg 56%
    18:00 +12°C° 0 mm 2 m/s 770 mmHg 62%
    19:00 +12°C° 0 mm 2 m/s 770 mmHg 63%
    20:00 +10°C° 0 mm 2 m/s 770 mmHg 65%
    21:00 +10°C° 0 mm 2 m/s 770 mmHg 67%
    22:00 +9°C° 0 mm 2 m/s 770 mmHg 69%
    23:00 +9°C° 0 mm 2 m/s 770 mmHg 70%

    27 Février, Mercredi

    Heure Température Précipitation Vent Pression Humidité
    00:00 +9°C° 0 mm 2 m/s 769 mmHg 72%
    01:00 +8°C° 0 mm 2 m/s 769 mmHg 72%
    02:00 +9°C° 0 mm 1 m/s 769 mmHg 72%
    03:00 +9°C° 0 mm 1 m/s 768 mmHg 72%
    04:00 +8°C° 0 mm 1 m/s 768 mmHg 71%
    05:00 +7°C° 0 mm 2 m/s 768 mmHg 70%
    06:00 +7°C° 0 mm 2 m/s 768 mmHg 69%
    07:00 +8°C° 0 mm 2 m/s 768 mmHg 65%
    08:00 +9°C° 0 mm 2 m/s 767 mmHg 61%
    09:00 +10°C° 0 mm 2 m/s 767 mmHg 58%
    10:00 +12°C° 0 mm 2 m/s 767 mmHg 55%
    11:00 +13°C° 0 mm 3 m/s 767 mmHg 53%
    12:00 +14°C° 0 mm 3 m/s 766 mmHg 51%
    13:00 +16°C° 0 mm 3 m/s 766 mmHg 52%
    14:00 +16°C° 0 mm 3 m/s 765 mmHg 53%
    15:00 +16°C° 0 mm 3 m/s 765 mmHg 54%
    16:00 +14°C° 0 mm 3 m/s 765 mmHg 60%
    17:00 +13°C° 0 mm 3 m/s 765 mmHg 66%
    18:00 +12°C° 0 mm 2 m/s 765 mmHg 72%
    19:00 +11°C° 0 mm 3 m/s 765 mmHg 77%
    20:00 +10°C° 0 mm 3 m/s 764 mmHg 81%
    21:00 +9°C° 0 mm 3 m/s 764 mmHg 85%
    22:00 +8°C° 0 mm 4 m/s 764 mmHg 86%
    23:00 +8°C° 0 mm 4 m/s 764 mmHg 87%

    28 Février, Jeudi

    Heure Température Précipitation Vent Pression Humidité
    00:00 +7°C° 0 mm 4 m/s 764 mmHg 89%
    01:00 +7°C° 0 mm 4 m/s 764 mmHg 90%
    02:00 +7°C° 0 mm 4 m/s 764 mmHg 91%
    03:00 +6°C° 0 mm 4 m/s 764 mmHg 92%
    04:00 +6°C° 0 mm 4 m/s 764 mmHg 93%
    05:00 +6°C° 0 mm 4 m/s 764 mmHg 94%
    06:00 +6°C° 0 mm 4 m/s 764 mmHg 94%
    07:00 +7°C° 0 mm 4 m/s 764 mmHg 92%
    08:00 +8°C° 0 mm 5 m/s 764 mmHg 89%
    09:00 +8°C° 0 mm 5 m/s 765 mmHg 86%
    10:00 +9°C° 0 mm 5 m/s 765 mmHg 84%
    11:00 +9°C° 0 mm 5 m/s 765 mmHg 83%
    12:00 +10°C° 0 mm 5 m/s 766 mmHg 81%
    13:00 +11°C° 0 mm 4 m/s 766 mmHg 78%
    14:00 +11°C° 0 mm 4 m/s 766 mmHg 76%
    15:00 +11°C° 0 mm 4 m/s 766 mmHg 73%
    16:00 +10°C° 0 mm 3 m/s 766 mmHg 76%
    17:00 +10°C° 0 mm 3 m/s 766 mmHg 79%
    18:00 +9°C° 0 mm 2 m/s 767 mmHg 82%
    19:00 +8°C° 0 mm 2 m/s 767 mmHg 85%
    20:00 +7°C° 0 mm 2 m/s 767 mmHg 87%
    21:00 +7°C° 0 mm 2 m/s 767 mmHg 90%
    22:00 +7°C° 0 mm 2 m/s 767 mmHg 89%
    23:00 +7°C° 0 mm 2 m/s 767 mmHg 89%
    Voir plus